Flag for Finland Weather past 2 weeks in Pori, Finland

Now
55 °F

Partly sunny.


Feels Like: 54 °F
Forecast: 51 / 59 °F
Wind: 6 mph from Northeast

Location: Pori Airport

Current Time: Sep 2, 2015 at 8:30:29 PM

Latest Report: Sep 2, 2015 at 7:50 PM


Visibility: N/A

Pressure: 29.92 "Hg

Humidity: 72%

Dew point: 46 °F

Location of PoriLocation

Historic Weather in Pori — Graph

°F

Pori temperature yesterday

Maximum temperature yesterday: 68 °F (at 2:50 PM)
Minimum temperature yesterday: 48 °F (at 5:50 AM)
Average temperature yesterday: 58 °F

Past Weeks' High & Low Weather Summary

 TemperatureHumidityPressure
High81 °F (Aug 25, 2:20 PM)100% (Aug 19, 1:50 AM)30.45 "Hg (Aug 19, 1:50 AM)
Low45 °F (Aug 19, 5:50 AM)32% (Aug 23, 4:50 PM)29.59 "Hg (Aug 28, 6:20 AM)
Average61 °F77%30.07 "Hg
* Reported Aug 18 7:20 PM — Sep 2 7:20 PM, Pori, Weather by CustomWeather, © 2015

Note: Actual official high and low records may vary slightly from our data, if they occured in-between our weather recording intervals... More about our weather records

Advertising

Pori weather history for previous 24 hours

 ConditionsComfort  
Time TempWeatherWind HumidityBarometerVisibility
7:20 PM
Wed, Sep 2
55 °FLight rain. Broken clouds.7 mph72%29.92 "HgN/A
6:50 PM55 °FPartly sunny.7 mph72%29.92 "HgN/A
6:20 PM55 °FPartly sunny.8 mph72%29.92 "HgN/A
5:50 PM55 °FPartly sunny.9 mph67%29.92 "HgN/A
5:20 PM55 °FSunny.9 mph67%29.92 "Hg10 mi
4:50 PM57 °FPassing clouds.9 mph63%29.92 "HgN/A
4:20 PM57 °FPassing clouds.9 mph63%29.92 "HgN/A
3:50 PM55 °FPassing clouds.9 mph67%29.92 "HgN/A
3:20 PM55 °FPassing clouds.9 mph67%29.92 "HgN/A
2:50 PM55 °FPassing clouds.10 mph72%29.92 "HgN/A
2:20 PM55 °FPassing clouds.10 mph67%29.92 "HgN/A
1:50 PM55 °FSunny.10 mph72%29.92 "Hg10 mi
1:20 PM57 °FPassing clouds.9 mph67%29.92 "HgN/A
12:50 PM55 °FSunny.12 mph72%29.89 "Hg10 mi
12:20 PM55 °FSunny.9 mph77%29.89 "Hg10 mi
11:50 AM55 °FSunny.10 mph77%29.89 "Hg10 mi
11:20 AM55 °FSunny.10 mph77%29.92 "Hg10 mi
10:50 AM54 °FSunny.8 mph82%29.92 "Hg10 mi
10:20 AM54 °FPassing clouds.9 mph82%29.92 "HgN/A
9:50 AM54 °FPassing clouds.8 mph82%29.92 "HgN/A
9:20 AM54 °FSunny.8 mph82%29.92 "Hg10 mi
8:50 AM54 °FPassing clouds.7 mph82%29.89 "HgN/A
8:20 AM52 °FSunny.7 mph88%29.92 "Hg10 mi
7:50 AM52 °FSunny.8 mph88%29.92 "Hg10 mi
7:20 AM52 °FPassing clouds.8 mph88%29.92 "HgN/A
6:50 AM52 °FPassing clouds.9 mph88%29.92 "HgN/A
6:20 AM52 °FClear.8 mph82%29.92 "Hg10 mi
5:50 AM52 °FPassing clouds.7 mph88%29.92 "HgN/A
5:20 AM52 °FPassing clouds.7 mph88%29.92 "HgN/A
4:50 AM52 °FClear.7 mph88%29.92 "Hg10 mi
4:20 AM52 °FClear.7 mph88%29.92 "Hg10 mi
3:50 AM52 °FPassing clouds.7 mph88%29.92 "HgN/A
3:20 AM54 °FPassing clouds.6 mph82%29.92 "HgN/A
2:50 AM54 °FPassing clouds.6 mph88%29.92 "HgN/A
2:20 AM54 °FClear.6 mph88%29.92 "Hg10 mi
1:50 AM54 °FClear.7 mph88%29.92 "Hg10 mi
12:20 AM57 °FClear.6 mph77%29.92 "Hg10 mi
11:50 PM
Tue, Sep 1
57 °FPassing clouds.6 mph82%29.92 "HgN/A
11:20 PM57 °FClear.6 mph82%29.92 "Hg10 mi
10:50 PM57 °FClear.2 mph88%29.92 "Hg10 mi
10:20 PM59 °FClear.5 mph82%29.92 "Hg10 mi
9:50 PM54 °FClear.2 mph94%29.92 "Hg10 mi
9:20 PM55 °FSunny.No wind94%29.92 "Hg10 mi
8:50 PM57 °FPassing clouds.1 mph88%29.92 "HgN/A
8:20 PM61 °FSunny.2 mph77%29.92 "Hg10 mi
Weather by CustomWeather, © 2015

See weather overviewHow to use our weather pages